Time,TemperatureF,DewpointF,PressureIn,WindDirection,WindDirectionDegrees,WindSpeedMPH,WindSpeedGustMPH,Humidity,HourlyPrecipIn,Conditions,Clouds,dailyrainin,SoftwareType,DateUTC
2014-04-19 00:00:00,58.5,40.5,29.93,ENE,68,1.1,1.6,51,0.00,,,0.00,WUHU216HW,2014-04-19 07:00:00,
2014-04-19 00:05:00,58.3,40.3,29.93,ENE,68,1.1,1.3,51,0.00,,,0.00,WUHU216HW,2014-04-19 07:05:00,
2014-04-19 00:10:00,58.3,40.3,29.93,NE,45,1.1,1.1,51,0.00,,,0.00,WUHU216HW,2014-04-19 07:10:00,
2014-04-19 00:15:00,58.1,40.6,29.94,ENE,68,1.3,1.6,52,0.00,,,0.00,WUHU216HW,2014-04-19 07:15:00,
2014-04-19 00:20:00,58.0,40.5,29.94,ENE,68,1.1,1.6,52,0.00,,,0.00,WUHU216HW,2014-04-19 07:20:00,
2014-04-19 00:25:00,58.0,40.5,29.94,ENE,68,1.6,2.0,52,0.00,,,0.00,WUHU216HW,2014-04-19 07:25:00,
2014-04-19 00:30:00,57.8,40.3,29.93,ENE,68,1.3,2.7,52,0.00,,,0.00,WUHU216HW,2014-04-19 07:30:00,
2014-04-19 00:35:00,57.6,40.1,29.93,ENE,68,1.1,2.7,52,0.00,,,0.00,WUHU216HW,2014-04-19 07:35:00,
2014-04-19 00:40:00,57.6,40.1,29.93,ENE,68,0.7,2.0,52,0.00,,,0.00,WUHU216HW,2014-04-19 07:40:00,
2014-04-19 00:45:00,57.4,40.4,29.93,ENE,68,0.9,1.8,53,0.00,,,0.00,WUHU216HW,2014-04-19 07:45:00,
2014-04-19 00:50:00,57.4,40.0,29.94,East,90,0.4,2.2,52,0.00,,,0.00,WUHU216HW,2014-04-19 07:50:00,
2014-04-19 00:55:00,57.2,40.3,29.93,ENE,68,0.4,2.5,53,0.00,,,0.00,WUHU216HW,2014-04-19 07:55:00,
2014-04-19 01:00:00,57.2,40.3,29.93,ENE,68,0.7,2.5,53,0.00,,,0.00,WUHU216HW,2014-04-19 08:00:00,
2014-04-19 01:05:00,57.2,40.3,29.93,ENE,68,0.7,2.0,53,0.00,,,0.00,WUHU216HW,2014-04-19 08:05:00,
2014-04-19 01:10:00,57.2,40.3,29.93,ENE,68,0.9,2.0,53,0.00,,,0.00,WUHU216HW,2014-04-19 08:10:00,
2014-04-19 01:15:00,57.2,39.8,29.93,NE,45,0.7,1.8,52,0.00,,,0.00,WUHU216HW,2014-04-19 08:15:00,
2014-04-19 01:20:00,57.2,39.8,29.93,ENE,68,1.6,2.0,52,0.00,,,0.00,WUHU216HW,2014-04-19 08:20:00,
2014-04-19 01:25:00,57.2,39.8,29.93,NE,45,1.3,2.7,52,0.00,,,0.00,WUHU216HW,2014-04-19 08:25:00,
2014-04-19 01:30:00,57.2,39.8,29.93,ENE,68,1.8,2.7,52,0.00,,,0.00,WUHU216HW,2014-04-19 08:30:00,
2014-04-19 01:35:00,57.2,40.3,29.93,East,90,0.9,2.2,53,0.00,,,0.00,WUHU216HW,2014-04-19 08:35:00,
2014-04-19 01:40:00,57.2,40.3,29.93,ESE,113,0.9,2.2,53,0.00,,,0.00,WUHU216HW,2014-04-19 08:40:00,
2014-04-19 01:45:00,57.2,40.3,29.93,ENE,68,0.7,1.8,53,0.00,,,0.00,WUHU216HW,2014-04-19 08:45:00,
2014-04-19 01:50:00,57.2,40.3,29.93,ENE,68,0.9,1.6,53,0.00,,,0.00,WUHU216HW,2014-04-19 08:50:00,
2014-04-19 01:55:00,57.2,40.3,29.93,ENE,68,0.0,1.8,53,0.00,,,0.00,WUHU216HW,2014-04-19 08:55:00,
2014-04-19 02:00:00,57.2,40.3,29.93,ENE,68,0.4,1.8,53,0.00,,,0.00,WUHU216HW,2014-04-19 09:00:00,
2014-04-19 02:05:00,57.2,40.3,29.93,ENE,68,1.1,2.0,53,0.00,,,0.00,WUHU216HW,2014-04-19 09:05:00,
2014-04-19 02:10:00,57.2,40.3,29.93,ENE,68,1.3,2.0,53,0.00,,,0.00,WUHU216HW,2014-04-19 09:10:00,
2014-04-19 02:15:00,57.2,40.3,29.93,ENE,68,0.9,2.2,53,0.00,,,0.00,WUHU216HW,2014-04-19 09:15:00,
2014-04-19 02:20:00,57.2,40.8,29.93,ENE,68,1.8,2.2,54,0.00,,,0.00,WUHU216HW,2014-04-19 09:20:00,
2014-04-19 02:25:00,57.2,40.8,29.93,East,90,0.4,1.8,54,0.00,,,0.00,WUHU216HW,2014-04-19 09:25:00,
2014-04-19 02:30:00,57.1,40.6,29.93,ESE,113,1.1,1.8,54,0.00,,,0.00,WUHU216HW,2014-04-19 09:30:00,
2014-04-19 02:35:00,57.1,40.6,29.93,ENE,68,1.3,1.8,54,0.00,,,0.00,WUHU216HW,2014-04-19 09:35:00,
2014-04-19 02:40:00,56.9,40.4,29.92,East,90,0.7,1.8,54,0.00,,,0.00,WUHU216HW,2014-04-19 09:40:00,
2014-04-19 02:45:00,56.9,40.4,29.92,East,90,1.1,1.8,54,0.00,,,0.00,WUHU216HW,2014-04-19 09:45:00,
2014-04-19 02:50:00,57.1,40.6,29.93,East,90,0.7,1.6,54,0.00,,,0.00,WUHU216HW,2014-04-19 09:50:00,
2014-04-19 02:55:00,56.9,40.4,29.93,East,90,0.9,1.8,54,0.00,,,0.00,WUHU216HW,2014-04-19 09:55:00,
2014-04-19 03:00:00,57.1,40.6,29.93,ENE,68,1.1,1.8,54,0.00,,,0.00,WUHU216HW,2014-04-19 10:00:00,
2014-04-19 03:05:00,57.1,40.6,29.93,East,90,0.7,1.8,54,0.00,,,0.00,WUHU216HW,2014-04-19 10:05:00,
2014-04-19 03:10:00,57.2,41.2,29.93,East,90,0.9,1.6,55,0.00,,,0.00,WUHU216HW,2014-04-19 10:10:00,
2014-04-19 03:15:00,57.2,41.2,29.93,ENE,68,1.8,1.8,55,0.00,,,0.00,WUHU216HW,2014-04-19 10:15:00,
2014-04-19 03:20:00,57.2,41.2,29.93,East,90,1.3,1.8,55,0.00,,,0.00,WUHU216HW,2014-04-19 10:20:00,
2014-04-19 03:25:00,57.2,41.2,29.93,ESE,113,1.1,1.8,55,0.00,,,0.00,WUHU216HW,2014-04-19 10:25:00,
2014-04-19 03:30:00,57.2,41.2,29.93,East,90,1.1,1.6,55,0.00,,,0.00,WUHU216HW,2014-04-19 10:30:00,
2014-04-19 03:35:00,57.4,41.4,29.92,East,90,1.1,1.6,55,0.00,,,0.00,WUHU216HW,2014-04-19 10:35:00,
2014-04-19 03:40:00,57.4,41.4,29.93,ENE,68,1.8,1.8,55,0.00,,,0.00,WUHU216HW,2014-04-19 10:40:00,
2014-04-19 03:45:00,57.4,41.4,29.93,East,90,0.9,1.8,55,0.00,,,0.00,WUHU216HW,2014-04-19 10:45:00,
2014-04-19 03:50:00,57.4,41.4,29.93,East,90,0.4,1.6,55,0.00,,,0.00,WUHU216HW,2014-04-19 10:50:00,
2014-04-19 03:55:00,57.4,41.4,29.93,East,90,0.7,1.6,55,0.00,,,0.00,WUHU216HW,2014-04-19 10:55:00,
2014-04-19 04:00:00,57.4,41.4,29.93,East,90,1.1,1.3,55,0.00,,,0.00,WUHU216HW,2014-04-19 11:00:00,
2014-04-19 04:05:00,57.2,41.2,29.93,East,90,0.7,1.3,55,0.00,,,0.00,WUHU216HW,2014-04-19 11:05:00,
2014-04-19 04:10:00,57.2,41.2,29.93,ENE,68,0.4,1.6,55,0.00,,,0.00,WUHU216HW,2014-04-19 11:10:00,
2014-04-19 04:15:00,57.2,41.2,29.93,ENE,68,0.4,1.8,55,0.00,,,0.00,WUHU216HW,2014-04-19 11:15:00,
2014-04-19 04:20:00,57.2,41.2,29.93,ENE,68,0.9,1.8,55,0.00,,,0.00,WUHU216HW,2014-04-19 11:20:00,
2014-04-19 04:25:00,57.2,41.7,29.93,ENE,68,0.4,1.8,56,0.00,,,0.00,WUHU216HW,2014-04-19 11:25:00,
2014-04-19 04:30:00,57.1,41.5,29.93,ENE,68,0.4,1.6,56,0.00,,,0.00,WUHU216HW,2014-04-19 11:30:00,
2014-04-19 04:35:00,57.1,41.0,29.93,ENE,68,0.4,1.8,55,0.00,,,0.00,WUHU216HW,2014-04-19 11:35:00,
2014-04-19 04:40:00,57.1,41.0,29.93,ENE,68,0.4,1.8,55,0.00,,,0.00,WUHU216HW,2014-04-19 11:40:00,
2014-04-19 04:45:00,57.1,41.0,29.93,ENE,68,1.1,1.1,55,0.00,,,0.00,WUHU216HW,2014-04-19 11:45:00,
2014-04-19 04:50:00,56.9,40.9,29.93,ENE,68,0.2,1.1,55,0.00,,,0.00,WUHU216HW,2014-04-19 11:50:00,
2014-04-19 04:55:00,56.9,40.9,29.93,ENE,68,0.9,1.1,55,0.00,,,0.00,WUHU216HW,2014-04-19 11:55:00,
2014-04-19 05:00:00,56.9,41.3,29.93,ENE,68,0.0,0.9,56,0.00,,,0.00,WUHU216HW,2014-04-19 12:00:00,
2014-04-19 05:05:00,56.7,41.1,29.93,ENE,68,0.4,1.3,56,0.00,,,0.00,WUHU216HW,2014-04-19 12:05:00,
2014-04-19 05:10:00,56.7,41.1,29.93,ENE,68,0.4,1.3,56,0.00,,,0.00,WUHU216HW,2014-04-19 12:10:00,
2014-04-19 05:15:00,56.5,41.4,29.93,ENE,68,0.0,1.3,57,0.00,,,0.00,WUHU216HW,2014-04-19 12:15:00,
2014-04-19 05:20:00,56.5,41.4,29.93,ENE,68,1.1,1.6,57,0.00,,,0.00,WUHU216HW,2014-04-19 12:20:00,
2014-04-19 05:25:00,56.3,41.8,29.93,ENE,68,0.2,1.6,58,0.00,,,0.00,WUHU216HW,2014-04-19 12:25:00,
2014-04-19 05:30:00,56.3,41.8,29.93,ENE,68,0.9,1.6,58,0.00,,,0.00,WUHU216HW,2014-04-19 12:30:00,
2014-04-19 05:35:00,56.2,42.0,29.93,ENE,68,0.7,1.6,59,0.00,,,0.00,WUHU216HW,2014-04-19 12:35:00,
2014-04-19 05:40:00,56.2,42.0,29.93,ENE,68,1.1,1.1,59,0.00,,,0.00,WUHU216HW,2014-04-19 12:40:00,
2014-04-19 05:45:00,56.0,41.9,29.93,ENE,68,0.9,1.6,59,0.00,,,0.00,WUHU216HW,2014-04-19 12:45:00,
2014-04-19 05:50:00,56.0,41.9,29.93,ENE,68,0.2,2.5,59,0.00,,,0.00,WUHU216HW,2014-04-19 12:50:00,
2014-04-19 05:55:00,56.0,42.3,29.94,ENE,68,1.6,2.5,60,0.00,,,0.00,WUHU216HW,2014-04-19 12:55:00,
2014-04-19 06:00:00,56.0,42.3,29.94,ENE,68,1.1,1.8,60,0.00,,,0.00,WUHU216HW,2014-04-19 13:00:00,
2014-04-19 06:05:00,56.0,42.3,29.94,ENE,68,0.4,1.8,60,0.00,,,0.00,WUHU216HW,2014-04-19 13:05:00,
2014-04-19 06:10:00,55.8,42.1,29.94,NE,45,0.4,1.8,60,0.00,,,0.00,WUHU216HW,2014-04-19 13:10:00,
2014-04-19 06:15:00,55.8,42.1,29.95,NE,45,1.1,1.8,60,0.00,,,0.00,WUHU216HW,2014-04-19 13:15:00,
2014-04-19 06:20:00,55.8,42.1,29.95,NE,45,0.4,1.1,60,0.00,,,0.00,WUHU216HW,2014-04-19 13:20:00,
2014-04-19 06:25:00,55.8,42.1,29.95,ENE,68,0.2,2.0,60,0.00,,,0.00,WUHU216HW,2014-04-19 13:25:00,
2014-04-19 06:30:00,55.8,41.7,29.95,ENE,68,0.4,2.0,59,0.00,,,0.00,WUHU216HW,2014-04-19 13:30:00,
2014-04-19 06:35:00,56.0,42.3,29.95,ENE,68,0.4,1.1,60,0.00,,,0.00,WUHU216HW,2014-04-19 13:35:00,
2014-04-19 06:40:00,55.8,42.1,29.95,ENE,68,0.4,1.3,60,0.00,,,0.00,WUHU216HW,2014-04-19 13:40:00,
2014-04-19 06:45:00,55.8,42.1,29.95,ENE,68,0.7,1.8,60,0.00,,,0.00,WUHU216HW,2014-04-19 13:45:00,
2014-04-19 06:50:00,55.8,42.6,29.95,ENE,68,0.4,1.8,61,0.00,,,0.00,WUHU216HW,2014-04-19 13:50:00,
2014-04-19 06:55:00,55.6,42.4,29.95,ENE,68,1.1,1.8,61,0.00,,,0.00,WUHU216HW,2014-04-19 13:55:00,
2014-04-19 07:00:00,55.6,42.8,29.95,ENE,68,1.1,1.8,62,0.00,,,0.00,WUHU216HW,2014-04-19 14:00:00,
2014-04-19 07:05:00,55.4,42.6,29.95,ENE,68,0.9,1.8,62,0.00,,,0.00,WUHU216HW,2014-04-19 14:05:00,
2014-04-19 07:10:00,55.4,42.6,29.95,ENE,68,0.7,1.8,62,0.00,,,0.00,WUHU216HW,2014-04-19 14:10:00,
2014-04-19 07:15:00,55.4,42.6,29.95,NE,45,1.8,1.8,62,0.00,,,0.00,WUHU216HW,2014-04-19 14:15:00,
2014-04-19 07:20:00,55.6,43.2,29.95,ENE,68,1.1,1.8,63,0.00,,,0.00,WUHU216HW,2014-04-19 14:20:00,
2014-04-19 07:25:00,55.6,43.2,29.95,East,90,0.9,1.8,63,0.00,,,0.00,WUHU216HW,2014-04-19 14:25:00,
2014-04-19 07:30:00,55.8,43.4,29.95,East,90,0.7,1.3,63,0.00,,,0.00,WUHU216HW,2014-04-19 14:30:00,
2014-04-19 07:35:00,55.8,43.4,29.96,East,90,1.1,1.1,63,0.00,,,0.00,WUHU216HW,2014-04-19 14:35:00,
2014-04-19 07:40:00,56.2,43.8,29.95,East,90,0.9,1.1,63,0.00,,,0.00,WUHU216HW,2014-04-19 14:40:00,
2014-04-19 07:45:00,56.3,43.9,29.96,East,90,1.1,1.1,63,0.00,,,0.00,WUHU216HW,2014-04-19 14:45:00,
2014-04-19 07:50:00,56.7,43.8,29.96,East,90,0.9,1.3,62,0.00,,,0.00,WUHU216HW,2014-04-19 14:50:00,
2014-04-19 07:55:00,57.1,44.2,29.96,ENE,68,1.1,1.3,62,0.00,,,0.00,WUHU216HW,2014-04-19 14:55:00,
2014-04-19 08:00:00,57.6,44.6,29.96,ENE,68,0.9,1.3,62,0.00,,,0.00,WUHU216HW,2014-04-19 15:00:00,
2014-04-19 08:05:00,57.8,44.8,29.96,East,90,0.4,1.1,62,0.00,,,0.00,WUHU216HW,2014-04-19 15:05:00,
2014-04-19 08:10:00,58.1,45.2,29.97,ESE,113,0.4,1.1,62,0.00,,,0.00,WUHU216HW,2014-04-19 15:10:00,
2014-04-19 08:15:00,58.7,45.3,29.97,SE,135,0.2,0.7,61,0.00,,,0.00,WUHU216HW,2014-04-19 15:15:00,
2014-04-19 08:20:00,59.0,46.0,29.97,ENE,68,0.0,0.7,62,0.00,,,0.00,WUHU216HW,2014-04-19 15:20:00,
2014-04-19 08:25:00,59.4,46.4,29.97,ESE,113,0.0,0.7,62,0.00,,,0.00,WUHU216HW,2014-04-19 15:25:00,
2014-04-19 08:30:00,60.3,47.7,29.98,NE,45,0.0,0.7,63,0.00,,,0.00,WUHU216HW,2014-04-19 15:30:00,
2014-04-19 08:35:00,62.1,49.0,29.98,NE,45,0.0,0.4,62,0.00,,,0.00,WUHU216HW,2014-04-19 15:35:00,
2014-04-19 08:40:00,63.5,49.9,29.98,NE,45,0.0,0.0,61,0.00,,,0.00,WUHU216HW,2014-04-19 15:40:00,
2014-04-19 08:45:00,64.6,50.4,29.98,NE,45,0.0,0.0,60,0.00,,,0.00,WUHU216HW,2014-04-19 15:45:00,
2014-04-19 08:50:00,65.5,50.3,29.98,NE,45,0.0,0.0,58,0.00,,,0.00,WUHU216HW,2014-04-19 15:50:00,
2014-04-19 08:55:00,65.5,49.9,29.98,SSE,158,0.7,1.1,57,0.00,,,0.00,WUHU216HW,2014-04-19 15:55:00,
2014-04-19 09:00:00,65.7,50.1,29.98,SE,135,1.3,1.3,57,0.00,,,0.00,WUHU216HW,2014-04-19 16:00:00,
2014-04-19 09:05:00,65.5,49.3,29.98,SE,135,0.4,1.3,56,0.00,,,0.00,WUHU216HW,2014-04-19 16:05:00,
2014-04-19 09:10:00,65.3,49.1,29.99,SE,135,1.3,1.3,56,0.00,,,0.00,WUHU216HW,2014-04-19 16:10:00,
2014-04-19 09:15:00,65.2,49.0,29.99,SW,225,1.8,2.0,56,0.00,,,0.00,WUHU216HW,2014-04-19 16:15:00,
2014-04-19 09:20:00,64.6,49.0,29.99,SSW,203,0.0,2.0,57,0.00,,,0.00,WUHU216HW,2014-04-19 16:20:00,
2014-04-19 09:25:00,64.4,48.8,30.00,ESE,113,0.2,1.8,57,0.00,,,0.00,WUHU216HW,2014-04-19 16:25:00,
2014-04-19 09:30:00,64.4,48.8,30.00,SE,135,0.0,1.3,57,0.00,,,0.00,WUHU216HW,2014-04-19 16:30:00,
2014-04-19 09:35:00,64.3,48.2,30.00,SSE,158,0.7,1.3,56,0.00,,,0.00,WUHU216HW,2014-04-19 16:35:00,
2014-04-19 09:40:00,63.7,47.6,30.00,SW,225,2.5,2.5,56,0.00,,,0.00,WUHU216HW,2014-04-19 16:40:00,
2014-04-19 09:45:00,63.2,47.6,30.00,SSW,203,0.0,2.5,57,0.00,,,0.00,WUHU216HW,2014-04-19 16:45:00,
2014-04-19 09:50:00,62.6,48.2,30.00,SSE,158,1.1,2.5,59,0.00,,,0.00,WUHU216HW,2014-04-19 16:50:00,
2014-04-19 09:55:00,62.3,47.8,30.00,SSE,158,0.0,2.0,59,0.00,,,0.00,WUHU216HW,2014-04-19 16:55:00,
2014-04-19 10:00:00,61.9,48.8,30.00,SSW,203,0.0,1.1,62,0.00,,,0.00,WUHU216HW,2014-04-19 17:00:00,
2014-04-19 10:05:00,61.6,48.1,30.01,South,180,1.1,1.1,61,0.00,,,0.00,WUHU216HW,2014-04-19 17:05:00,
2014-04-19 10:10:00,61.6,48.1,30.01,ESE,113,0.4,1.6,61,0.00,,,0.00,WUHU216HW,2014-04-19 17:10:00,
2014-04-19 10:15:00,61.7,48.6,30.01,SW,225,0.0,1.6,62,0.00,,,0.00,WUHU216HW,2014-04-19 17:15:00,
2014-04-19 10:20:00,61.7,48.6,30.01,WSW,248,0.0,0.9,62,0.00,,,0.00,WUHU216HW,2014-04-19 17:20:00,
2014-04-19 10:25:00,61.9,48.8,30.01,West,270,0.2,1.1,62,0.00,,,0.00,WUHU216HW,2014-04-19 17:25:00,
2014-04-19 10:30:00,62.1,48.5,30.01,SE,135,0.2,2.0,61,0.00,,,0.00,WUHU216HW,2014-04-19 17:30:00,
2014-04-19 10:35:00,62.3,48.7,30.01,South,180,1.3,2.0,61,0.00,,,0.00,WUHU216HW,2014-04-19 17:35:00,
2014-04-19 10:40:00,62.6,49.1,30.01,SE,135,0.0,2.0,61,0.00,,,0.00,WUHU216HW,2014-04-19 17:40:00,
2014-04-19 10:45:00,63.0,49.3,30.01,West,270,0.9,2.0,61,0.00,,,0.00,WUHU216HW,2014-04-19 17:45:00,
2014-04-19 10:50:00,63.5,49.9,30.02,SW,225,0.2,2.9,61,0.00,,,0.00,WUHU216HW,2014-04-19 17:50:00,
2014-04-19 10:55:00,63.9,50.1,30.02,ESE,113,0.4,2.9,61,0.00,,,0.00,WUHU216HW,2014-04-19 17:55:00,
2014-04-19 11:00:00,64.3,50.0,30.02,ESE,113,1.1,3.4,60,0.00,,,0.00,WUHU216HW,2014-04-19 18:00:00,
2014-04-19 11:05:00,64.6,50.0,30.02,East,90,1.1,3.4,59,0.00,,,0.00,WUHU216HW,2014-04-19 18:05:00,
2014-04-19 11:10:00,64.8,50.1,30.02,SSE,158,1.6,3.4,59,0.00,,,0.00,WUHU216HW,2014-04-19 18:10:00,
2014-04-19 11:15:00,65.2,50.0,30.03,SSE,158,2.2,4.0,58,0.00,,,0.00,WUHU216HW,2014-04-19 18:15:00,
2014-04-19 11:20:00,65.2,50.0,30.03,SE,135,3.1,4.0,58,0.00,,,0.00,WUHU216HW,2014-04-19 18:20:00,
2014-04-19 11:25:00,65.3,49.7,30.02,SE,135,0.4,3.4,57,0.00,,,0.00,WUHU216HW,2014-04-19 18:25:00,
2014-04-19 11:30:00,65.5,49.3,30.03,ESE,113,3.4,4.0,56,0.00,,,0.00,WUHU216HW,2014-04-19 18:30:00,
2014-04-19 11:35:00,65.7,49.5,30.02,ESE,113,3.1,4.9,56,0.00,,,0.00,WUHU216HW,2014-04-19 18:35:00,
2014-04-19 11:40:00,65.9,49.2,30.02,ESE,113,3.6,4.9,55,0.00,,,0.00,WUHU216HW,2014-04-19 18:40:00,
2014-04-19 11:45:00,65.9,48.8,30.02,SE,135,2.5,5.4,54,0.00,,,0.00,WUHU216HW,2014-04-19 18:45:00,
2014-04-19 11:50:00,65.9,48.8,30.02,SE,135,2.0,5.4,54,0.00,,,0.00,WUHU216HW,2014-04-19 18:50:00,
2014-04-19 11:55:00,66.2,49.2,30.03,SSE,158,0.4,4.0,54,0.00,,,0.00,WUHU216HW,2014-04-19 18:55:00,
2014-04-19 12:00:00,66.4,49.2,30.03,SSE,158,0.4,3.4,54,0.00,,,0.00,WUHU216HW,2014-04-19 19:00:00,
2014-04-19 12:05:00,66.6,48.4,30.03,ESE,113,2.5,4.7,52,0.00,,,0.00,WUHU216HW,2014-04-19 19:05:00,
2014-04-19 12:10:00,66.6,47.5,30.03,SE,135,2.0,4.7,50,0.00,,,0.00,WUHU216HW,2014-04-19 19:10:00,
2014-04-19 12:15:00,66.6,46.9,30.04,SE,135,1.1,3.8,49,0.00,,,0.00,WUHU216HW,2014-04-19 19:15:00,
2014-04-19 12:20:00,67.0,45.5,30.04,SE,135,1.8,3.6,46,0.00,,,0.00,WUHU216HW,2014-04-19 19:20:00,
2014-04-19 12:25:00,67.1,45.6,30.04,South,180,3.1,3.6,46,0.00,,,0.00,WUHU216HW,2014-04-19 19:25:00,
2014-04-19 12:30:00,67.5,45.4,30.04,North,0,0.9,3.4,45,0.00,,,0.00,WUHU216HW,2014-04-19 19:30:00,
2014-04-19 12:35:00,67.7,44.3,30.04,SSW,203,4.0,4.5,43,0.00,,,0.00,WUHU216HW,2014-04-19 19:35:00,
2014-04-19 12:40:00,67.9,42.7,30.04,WSW,248,2.5,5.1,40,0.00,,,0.00,WUHU216HW,2014-04-19 19:40:00,
2014-04-19 12:45:00,68.0,43.5,30.04,SSW,203,1.1,5.4,41,0.00,,,0.00,WUHU216HW,2014-04-19 19:45:00,
2014-04-19 12:50:00,68.2,43.6,30.04,SE,135,1.1,5.4,41,0.00,,,0.00,WUHU216HW,2014-04-19 19:50:00,
2014-04-19 12:55:00,68.8,44.6,30.04,WSW,248,0.9,4.7,42,0.00,,,0.00,WUHU216HW,2014-04-19 19:55:00,
2014-04-19 13:00:00,68.9,44.8,30.04,SSE,158,2.7,2.9,42,0.00,,,0.00,WUHU216HW,2014-04-19 20:00:00,
2014-04-19 13:05:00,69.3,45.2,30.04,ESE,113,1.3,3.8,42,0.00,,,0.00,WUHU216HW,2014-04-19 20:05:00,
2014-04-19 13:10:00,69.3,44.6,30.04,East,90,2.2,3.8,41,0.00,,,0.00,WUHU216HW,2014-04-19 20:10:00,
2014-04-19 13:15:00,69.3,45.2,30.03,SW,225,0.4,3.1,42,0.00,,,0.00,WUHU216HW,2014-04-19 20:15:00,
2014-04-19 13:20:00,69.5,45.4,30.04,ESE,113,2.0,2.9,42,0.00,,,0.00,WUHU216HW,2014-04-19 20:20:00,
2014-04-19 13:25:00,69.7,45.5,30.04,SE,135,1.1,4.0,42,0.00,,,0.00,WUHU216HW,2014-04-19 20:25:00,
2014-04-19 13:30:00,69.8,45.1,30.04,SE,135,0.7,4.0,41,0.00,,,0.00,WUHU216HW,2014-04-19 20:30:00,
2014-04-19 13:35:00,70.0,45.8,30.04,SSE,158,0.9,2.5,42,0.00,,,0.00,WUHU216HW,2014-04-19 20:35:00,
2014-04-19 13:40:00,69.7,44.3,30.04,SSW,203,3.1,4.9,40,0.00,,,0.00,WUHU216HW,2014-04-19 20:40:00,
2014-04-19 13:45:00,69.7,44.9,30.04,SSE,158,2.0,4.9,41,0.00,,,0.00,WUHU216HW,2014-04-19 20:45:00,
2014-04-19 13:50:00,69.7,42.1,30.04,SSE,158,0.9,2.9,37,0.00,,,0.00,WUHU216HW,2014-04-19 20:50:00,
2014-04-19 13:55:00,69.7,43.6,30.05,ESE,113,1.1,3.8,39,0.00,,,0.00,WUHU216HW,2014-04-19 20:55:00,
2014-04-19 14:00:00,70.2,43.3,30.05,SSE,158,2.5,3.8,38,0.00,,,0.00,WUHU216HW,2014-04-19 21:00:00,
2014-04-19 14:05:00,70.6,43.7,30.05,SSE,158,2.9,3.8,38,0.00,,,0.00,WUHU216HW,2014-04-19 21:05:00,
2014-04-19 14:10:00,70.6,42.9,30.05,WSW,248,1.1,3.8,37,0.00,,,0.00,WUHU216HW,2014-04-19 21:10:00,
2014-04-19 14:15:00,70.6,43.7,30.05,SSE,158,2.7,3.8,38,0.00,,,0.00,WUHU216HW,2014-04-19 21:15:00,
2014-04-19 14:20:00,70.9,43.9,30.05,SE,135,2.0,3.4,38,0.00,,,0.00,WUHU216HW,2014-04-19 21:20:00,
2014-04-19 14:25:00,71.1,42.7,30.05,SSE,158,1.1,3.4,36,0.00,,,0.00,WUHU216HW,2014-04-19 21:25:00,
2014-04-19 14:30:00,70.7,40.2,30.05,SSE,158,1.8,3.4,33,0.00,,,0.00,WUHU216HW,2014-04-19 21:30:00,
2014-04-19 14:35:00,70.6,40.0,30.06,SSE,158,0.2,3.4,33,0.00,,,0.00,WUHU216HW,2014-04-19 21:35:00,
2014-04-19 14:40:00,70.2,39.6,30.05,WSW,248,1.1,3.4,33,0.00,,,0.00,WUHU216HW,2014-04-19 21:40:00,
2014-04-19 14:45:00,70.2,40.3,30.05,SW,225,2.2,3.4,34,0.00,,,0.00,WUHU216HW,2014-04-19 21:45:00,
2014-04-19 14:50:00,70.2,40.3,30.05,SE,135,1.3,3.6,34,0.00,,,0.00,WUHU216HW,2014-04-19 21:50:00,